contact:dominique.lefevre@mio.osupytheas.fr, maurice.libes@osupytheas.fr, didier.mallarino@osupytheas.fr
Project:EMSO http://www.emso-fr.org/EMSO-France
Depth: 2436.0 m
Title:EMSO Ligure Ouest : Data MII capteur MICROCAT
DateTime_Computer,Latitude,Longitude,Temperature,Conductivity,Pressure,DateTime_Instrument
DateTime_Computer,Latitude,Longitude,degC,S m-1,dbar,DateTime_Instrument
2022-05-14T00:01:00Z,42.805,6.029,13.2998,4.60033,2469.806,2022-5-14T02:02:41Z
2022-05-14T00:04:03Z,42.805,6.029,13.3000,4.60033,2469.797,2022-5-14T02:05:44Z
2022-05-14T00:07:07Z,42.805,6.029,13.3000,4.60033,2469.783,2022-5-14T02:08:47Z
2022-05-14T00:10:10Z,42.805,6.029,13.3000,4.60032,2469.797,2022-5-14T02:11:51Z
2022-05-14T00:13:13Z,42.805,6.029,13.3000,4.60033,2469.806,2022-5-14T02:14:54Z
2022-05-14T00:16:16Z,42.805,6.029,13.2998,4.60032,2469.806,2022-5-14T02:17:57Z
2022-05-14T00:19:19Z,42.805,6.029,13.2998,4.60031,2469.806,2022-5-14T02:21:00Z
2022-05-14T00:22:22Z,42.805,6.029,13.2999,4.60032,2469.844,2022-5-14T02:24:03Z
2022-05-14T00:25:25Z,42.805,6.029,13.2997,4.60032,2469.797,2022-5-14T02:27:06Z
2022-05-14T00:28:28Z,42.805,6.029,13.2996,4.60033,2469.806,2022-5-14T02:30:09Z
2022-05-14T00:31:32Z,42.805,6.029,13.2997,4.60032,2469.783,2022-5-14T02:33:12Z
2022-05-14T00:34:35Z,42.805,6.029,13.3000,4.60033,2469.821,2022-5-14T02:36:15Z
2022-05-14T00:37:38Z,42.805,6.029,13.2998,4.60033,2469.806,2022-5-14T02:39:19Z
2022-05-14T00:40:41Z,42.805,6.029,13.2998,4.60033,2469.83,2022-5-14T02:42:22Z
2022-05-14T00:43:44Z,42.805,6.029,13.2997,4.60032,2469.83,2022-5-14T02:45:25Z
2022-05-14T00:46:47Z,42.805,6.029,13.2996,4.60032,2469.844,2022-5-14T02:48:28Z
2022-05-14T00:49:50Z,42.805,6.029,13.3000,4.60033,2469.83,2022-5-14T02:51:31Z
2022-05-14T00:52:53Z,42.805,6.029,13.2998,4.60033,2469.853,2022-5-14T02:54:34Z
2022-05-14T00:55:57Z,42.805,6.029,13.3000,4.60032,2469.806,2022-5-14T02:57:37Z
2022-05-14T00:59:00Z,42.805,6.029,13.2997,4.60032,2469.806,2022-5-14T03:00:40Z
2022-05-14T01:02:03Z,42.805,6.029,13.2998,4.60033,2469.844,2022-5-14T03:03:44Z
2022-05-14T01:05:06Z,42.805,6.029,13.2999,4.60032,2469.83,2022-5-14T03:06:47Z
2022-05-14T01:08:09Z,42.805,6.029,13.2998,4.60033,2469.867,2022-5-14T03:09:50Z
2022-05-14T01:11:12Z,42.805,6.029,13.2999,4.60033,2469.821,2022-5-14T03:12:53Z
2022-05-14T01:14:15Z,42.805,6.029,13.2996,4.60033,2469.844,2022-5-14T03:15:56Z
2022-05-14T01:17:18Z,42.805,6.029,13.3000,4.60032,2469.867,2022-5-14T03:18:59Z
2022-05-14T01:20:21Z,42.805,6.029,13.2996,4.60032,2469.853,2022-5-14T03:22:02Z
2022-05-14T01:23:25Z,42.805,6.029,13.3001,4.60032,2469.867,2022-5-14T03:25:05Z
2022-05-14T01:26:28Z,42.805,6.029,13.3000,4.60033,2469.867,2022-5-14T03:28:08Z
2022-05-14T01:29:31Z,42.805,6.029,13.3000,4.60033,2469.89,2022-5-14T03:31:12Z
2022-05-14T01:32:34Z,42.805,6.029,13.2999,4.60033,2469.844,2022-5-14T03:34:15Z
2022-05-14T01:35:37Z,42.805,6.029,13.3000,4.60032,2469.876,2022-5-14T03:37:18Z
2022-05-14T01:38:40Z,42.805,6.029,13.2998,4.60033,2469.876,2022-5-14T03:40:21Z
2022-05-14T01:41:43Z,42.805,6.029,13.2998,4.60033,2469.853,2022-5-14T03:43:24Z
2022-05-14T01:44:46Z,42.805,6.029,13.2999,4.60032,2469.876,2022-5-14T03:46:27Z
2022-05-14T01:47:50Z,42.805,6.029,13.2996,4.60033,2469.876,2022-5-14T03:49:30Z
2022-05-14T01:50:53Z,42.805,6.029,13.2997,4.60033,2469.853,2022-5-14T03:52:33Z
2022-05-14T01:53:56Z,42.805,6.029,13.2999,4.60033,2469.876,2022-5-14T03:55:37Z
2022-05-14T01:56:59Z,42.805,6.029,13.2998,4.60033,2469.876,2022-5-14T03:58:40Z
2022-05-14T02:00:02Z,42.805,6.029,13.2994,4.60033,2469.89,2022-5-14T04:01:43Z
2022-05-14T02:03:05Z,42.805,6.029,13.2998,4.60032,2469.9,2022-5-14T04:04:46Z
2022-05-14T02:06:08Z,42.805,6.029,13.2998,4.60033,2469.876,2022-5-14T04:07:49Z
2022-05-14T02:09:11Z,42.805,6.029,13.2997,4.60032,2469.89,2022-5-14T04:10:52Z
2022-05-14T02:12:15Z,42.805,6.029,13.2993,4.60033,2469.9,2022-5-14T04:13:55Z
2022-05-14T02:15:18Z,42.805,6.029,13.2998,4.60033,2469.876,2022-5-14T04:16:58Z
2022-05-14T02:18:21Z,42.805,6.029,13.3000,4.60033,2469.9,2022-5-14T04:20:02Z
2022-05-14T02:21:24Z,42.805,6.029,13.3000,4.60032,2469.9,2022-5-14T04:23:05Z
2022-05-14T02:24:27Z,42.805,6.029,13.3000,4.60033,2469.9,2022-5-14T04:26:08Z
2022-05-14T02:27:30Z,42.805,6.029,13.3001,4.60033,2469.9,2022-5-14T04:29:11Z
2022-05-14T02:30:33Z,42.805,6.029,13.2998,4.60033,2469.96,2022-5-14T04:32:14Z
2022-05-14T02:33:36Z,42.805,6.029,13.3004,4.60033,2469.9,2022-5-14T04:35:17Z
2022-05-14T02:36:40Z,42.805,6.029,13.3000,4.60033,2469.914,2022-5-14T04:38:20Z
2022-05-14T02:39:43Z,42.805,6.029,13.2997,4.60033,2469.9,2022-5-14T04:41:23Z
2022-05-14T02:42:46Z,42.805,6.029,13.2997,4.60033,2469.937,2022-5-14T04:44:27Z
2022-05-14T02:45:49Z,42.805,6.029,13.2998,4.60033,2469.923,2022-5-14T04:47:30Z
2022-05-14T02:48:52Z,42.805,6.029,13.3001,4.60033,2469.947,2022-5-14T04:50:33Z
2022-05-14T02:51:55Z,42.805,6.029,13.2999,4.60033,2469.923,2022-5-14T04:53:36Z
2022-05-14T02:54:58Z,42.805,6.029,13.3000,4.60032,2469.937,2022-5-14T04:56:39Z
2022-05-14T02:58:01Z,42.805,6.029,13.2998,4.60032,2469.923,2022-5-14T04:59:42Z
2022-05-14T03:01:05Z,42.805,6.029,13.2999,4.60033,2469.9,2022-5-14T05:02:45Z
2022-05-14T03:04:08Z,42.805,6.029,13.2999,4.60034,2469.947,2022-5-14T05:05:48Z
2022-05-14T03:07:11Z,42.805,6.029,13.2998,4.60034,2469.923,2022-5-14T05:08:52Z
2022-05-14T03:10:14Z,42.805,6.029,13.2998,4.60033,2469.97,2022-5-14T05:11:55Z
2022-05-14T03:13:17Z,42.805,6.029,13.2996,4.60033,2469.97,2022-5-14T05:14:58Z
2022-05-14T03:16:20Z,42.805,6.029,13.2999,4.60033,2469.947,2022-5-14T05:18:01Z
2022-05-14T03:19:23Z,42.805,6.029,13.2999,4.60033,2469.97,2022-5-14T05:21:04Z
2022-05-14T03:22:26Z,42.805,6.029,13.2999,4.60034,2469.96,2022-5-14T05:24:07Z
2022-05-14T03:25:29Z,42.805,6.029,13.3000,4.60033,2469.97,2022-5-14T05:27:10Z
2022-05-14T03:28:33Z,42.805,6.029,13.2997,4.60033,2469.97,2022-5-14T05:30:13Z
2022-05-14T03:31:36Z,42.805,6.029,13.2998,4.60033,2469.984,2022-5-14T05:33:16Z
2022-05-14T03:34:39Z,42.805,6.029,13.2999,4.60033,2469.984,2022-5-14T05:36:20Z
2022-05-14T03:37:42Z,42.805,6.029,13.2999,4.60033,2470.017,2022-5-14T05:39:23Z
2022-05-14T03:40:45Z,42.805,6.029,13.2997,4.60033,2469.97,2022-5-14T05:42:26Z
2022-05-14T03:43:48Z,42.805,6.029,13.3000,4.60033,2469.993,2022-5-14T05:45:29Z
2022-05-14T03:46:51Z,42.805,6.029,13.3001,4.60033,2469.984,2022-5-14T05:48:32Z
2022-05-14T03:49:54Z,42.805,6.029,13.3002,4.60033,2469.993,2022-5-14T05:51:35Z
2022-05-14T03:52:58Z,42.805,6.029,13.2998,4.60033,2469.97,2022-5-14T05:54:38Z
2022-05-14T03:56:01Z,42.805,6.029,13.3004,4.60033,2469.984,2022-5-14T05:57:41Z
2022-05-14T03:59:04Z,42.805,6.029,13.2998,4.60033,2469.993,2022-5-14T06:00:45Z
2022-05-14T04:02:07Z,42.805,6.029,13.3002,4.60033,2470.017,2022-5-14T06:03:48Z
2022-05-14T04:05:10Z,42.805,6.029,13.2999,4.60033,2470.017,2022-5-14T06:06:51Z
2022-05-14T04:08:13Z,42.805,6.029,13.3000,4.60034,2469.993,2022-5-14T06:09:54Z
2022-05-14T04:11:16Z,42.805,6.029,13.3000,4.60035,2470.053,2022-5-14T06:12:57Z
2022-05-14T04:14:19Z,42.805,6.029,13.2997,4.60033,2470.053,2022-5-14T06:16:00Z
2022-05-14T04:17:22Z,42.805,6.029,13.3003,4.60033,2470.017,2022-5-14T06:19:03Z
2022-05-14T04:20:26Z,42.805,6.029,13.2998,4.60035,2470.04,2022-5-14T06:22:06Z
2022-05-14T04:23:29Z,42.805,6.029,13.2993,4.60034,2470.03,2022-5-14T06:25:10Z
2022-05-14T04:26:32Z,42.805,6.029,13.3000,4.60033,2470.03,2022-5-14T06:28:13Z
2022-05-14T04:29:35Z,42.805,6.029,13.2996,4.60034,2469.993,2022-5-14T06:31:16Z
2022-05-14T04:32:38Z,42.805,6.029,13.2997,4.60033,2470.03,2022-5-14T06:34:19Z
2022-05-14T04:35:41Z,42.805,6.029,13.3000,4.60034,2470.017,2022-5-14T06:37:22Z
2022-05-14T04:38:44Z,42.805,6.029,13.2998,4.60033,2470.04,2022-5-14T06:40:25Z
2022-05-14T04:41:47Z,42.805,6.029,13.2998,4.60033,2470.077,2022-5-14T06:43:28Z
2022-05-14T04:44:51Z,42.805,6.029,13.3001,4.60033,2470.04,2022-5-14T06:46:31Z
2022-05-14T04:47:54Z,42.805,6.029,13.3001,4.60033,2470.017,2022-5-14T06:49:35Z
2022-05-14T04:50:57Z,42.805,6.029,13.3000,4.60033,2470.007,2022-5-14T06:52:38Z
2022-05-14T04:54:00Z,42.805,6.029,13.3001,4.60034,2470.053,2022-5-14T06:55:41Z
2022-05-14T04:57:03Z,42.805,6.029,13.3000,4.60033,2470.04,2022-5-14T06:58:44Z
2022-05-14T05:00:06Z,42.805,6.029,13.3000,4.60033,2470.007,2022-5-14T07:01:47Z
2022-05-14T05:03:09Z,42.805,6.029,13.2998,4.60034,2470.063,2022-5-14T07:04:50Z
2022-05-14T05:06:12Z,42.805,6.029,13.2998,4.60033,2470.04,2022-5-14T07:07:53Z
2022-05-14T05:09:16Z,42.805,6.029,13.3001,4.60033,2470.077,2022-5-14T07:10:56Z
2022-05-14T05:12:19Z,42.805,6.029,13.3000,4.60033,2470.04,2022-5-14T07:13:59Z
2022-05-14T05:15:22Z,42.805,6.029,13.3000,4.60034,2470.063,2022-5-14T07:17:03Z
2022-05-14T05:18:25Z,42.805,6.029,13.3000,4.60033,2470.087,2022-5-14T07:20:06Z
2022-05-14T05:21:28Z,42.805,6.029,13.2999,4.60033,2470.087,2022-5-14T07:23:09Z
2022-05-14T05:24:31Z,42.805,6.029,13.2998,4.60033,2470.1,2022-5-14T07:26:12Z
2022-05-14T05:27:34Z,42.805,6.029,13.2999,4.60033,2470.063,2022-5-14T07:29:15Z
2022-05-14T05:30:37Z,42.805,6.029,13.3001,4.60034,2470.11,2022-5-14T07:32:18Z
2022-05-14T05:33:40Z,42.805,6.029,13.3002,4.60034,2470.133,2022-5-14T07:35:21Z
2022-05-14T05:36:44Z,42.805,6.029,13.3001,4.60033,2470.11,2022-5-14T07:38:24Z
2022-05-14T05:39:47Z,42.805,6.029,13.3001,4.60033,2470.087,2022-5-14T07:41:28Z
2022-05-14T05:42:50Z,42.805,6.029,13.3001,4.60033,2470.11,2022-5-14T07:44:31Z
2022-05-14T05:45:53Z,42.805,6.029,13.2998,4.60033,2470.087,2022-5-14T07:47:34Z
2022-05-14T05:48:56Z,42.805,6.029,13.3002,4.60033,2470.063,2022-5-14T07:50:37Z
2022-05-14T05:51:59Z,42.805,6.029,13.2998,4.60033,2470.11,2022-5-14T07:53:40Z
2022-05-14T05:55:02Z,42.805,6.029,13.3000,4.60033,2470.063,2022-5-14T07:56:43Z
2022-05-14T05:58:05Z,42.805,6.029,13.3004,4.60033,2470.063,2022-5-14T07:59:46Z
2022-05-14T06:01:09Z,42.805,6.029,13.2999,4.60033,2470.124,2022-5-14T08:02:49Z
2022-05-14T06:04:12Z,42.805,6.029,13.3002,4.60033,2470.063,2022-5-14T08:05:53Z
2022-05-14T06:07:15Z,42.805,6.029,13.3000,4.60033,2470.1,2022-5-14T08:08:56Z
2022-05-14T06:10:18Z,42.805,6.029,13.2997,4.60033,2470.063,2022-5-14T08:11:59Z
2022-05-14T06:13:21Z,42.805,6.029,13.3000,4.60033,2470.087,2022-5-14T08:15:02Z
2022-05-14T06:16:24Z,42.805,6.029,13.3001,4.60033,2470.063,2022-5-14T08:18:05Z
2022-05-14T06:19:27Z,42.805,6.029,13.2998,4.60033,2470.063,2022-5-14T08:21:08Z
2022-05-14T06:22:30Z,42.805,6.029,13.2999,4.60034,2470.063,2022-5-14T08:24:11Z
2022-05-14T06:25:34Z,42.805,6.029,13.3002,4.60034,2470.063,2022-5-14T08:27:14Z
2022-05-14T06:28:37Z,42.805,6.029,13.2998,4.60034,2470.063,2022-5-14T08:30:17Z
2022-05-14T06:31:40Z,42.805,6.029,13.3000,4.60033,2470.063,2022-5-14T08:33:21Z
2022-05-14T06:34:43Z,42.805,6.029,13.2996,4.60034,2470.087,2022-5-14T08:36:24Z
2022-05-14T06:37:46Z,42.805,6.029,13.2996,4.60033,2470.063,2022-5-14T08:39:27Z
2022-05-14T06:40:49Z,42.805,6.029,13.3001,4.60033,2470.04,2022-5-14T08:42:30Z
2022-05-14T06:43:52Z,42.805,6.029,13.2998,4.60033,2470.087,2022-5-14T08:45:33Z
2022-05-14T06:46:55Z,42.805,6.029,13.2996,4.60033,2470.077,2022-5-14T08:48:36Z
2022-05-14T06:49:59Z,42.805,6.029,13.3000,4.60034,2470.063,2022-5-14T08:51:39Z
2022-05-14T06:53:02Z,42.805,6.029,13.3002,4.60033,2470.053,2022-5-14T08:54:42Z
2022-05-14T06:56:05Z,42.805,6.029,13.2998,4.60033,2470.077,2022-5-14T08:57:46Z
2022-05-14T06:59:08Z,42.805,6.029,13.3000,4.60033,2470.087,2022-5-14T09:00:49Z
2022-05-14T07:02:11Z,42.805,6.029,13.3001,4.60033,2470.063,2022-5-14T09:03:52Z
2022-05-14T07:05:14Z,42.805,6.029,13.2999,4.60033,2470.063,2022-5-14T09:06:55Z
2022-05-14T07:08:17Z,42.805,6.029,13.3001,4.60033,2470.063,2022-5-14T09:09:58Z
2022-05-14T07:11:20Z,42.805,6.029,13.3000,4.60033,2470.087,2022-5-14T09:13:01Z
2022-05-14T07:14:23Z,42.805,6.029,13.3002,4.60033,2470.1,2022-5-14T09:16:04Z
2022-05-14T07:17:27Z,42.805,6.029,13.3000,4.60033,2470.04,2022-5-14T09:19:07Z
2022-05-14T07:20:30Z,42.805,6.029,13.3004,4.60033,2470.053,2022-5-14T09:22:11Z
2022-05-14T07:23:33Z,42.805,6.029,13.2998,4.60033,2470.053,2022-5-14T09:25:14Z
2022-05-14T07:26:36Z,42.805,6.029,13.3004,4.60033,2470.04,2022-5-14T09:28:17Z
2022-05-14T07:29:39Z,42.805,6.029,13.2998,4.60034,2470.04,2022-5-14T09:31:20Z
2022-05-14T07:32:42Z,42.805,6.029,13.3000,4.60033,2470.04,2022-5-14T09:34:23Z
2022-05-14T07:35:45Z,42.805,6.029,13.2997,4.60033,2470.04,2022-5-14T09:37:26Z
2022-05-14T07:38:48Z,42.805,6.029,13.3001,4.60033,2470.053,2022-5-14T09:40:29Z
2022-05-14T07:41:52Z,42.805,6.029,13.3003,4.60034,2470.063,2022-5-14T09:43:32Z
2022-05-14T07:44:55Z,42.805,6.029,13.3000,4.60034,2470.017,2022-5-14T09:46:36Z
2022-05-14T07:47:58Z,42.805,6.029,13.3002,4.60033,2470.04,2022-5-14T09:49:39Z
2022-05-14T07:51:01Z,42.805,6.029,13.3000,4.60034,2470.077,2022-5-14T09:52:42Z
2022-05-14T07:54:04Z,42.805,6.029,13.3000,4.60034,2470.053,2022-5-14T09:55:45Z
2022-05-14T07:57:07Z,42.805,6.029,13.3002,4.60035,2470.03,2022-5-14T09:58:48Z
2022-05-14T08:00:10Z,42.805,6.029,13.3003,4.60035,2470.017,2022-5-14T10:01:51Z
2022-05-14T08:03:13Z,42.805,6.029,13.3000,4.60035,2470.003,2022-5-14T10:04:54Z
2022-05-14T08:06:17Z,42.805,6.029,13.2996,4.60034,2470.04,2022-5-14T10:07:57Z
2022-05-14T08:09:20Z,42.805,6.029,13.2999,4.60033,2469.993,2022-5-14T10:11:01Z
2022-05-14T08:12:23Z,42.805,6.029,13.2996,4.60033,2470.017,2022-5-14T10:14:04Z
2022-05-14T08:15:26Z,42.805,6.029,13.2998,4.60034,2470.03,2022-5-14T10:17:07Z
2022-05-14T08:18:29Z,42.805,6.029,13.2997,4.60033,2470.04,2022-5-14T10:20:10Z
2022-05-14T08:21:32Z,42.805,6.029,13.3004,4.60034,2470.04,2022-5-14T10:23:13Z
2022-05-14T08:24:35Z,42.805,6.029,13.3001,4.60034,2469.993,2022-5-14T10:26:16Z
2022-05-14T08:27:38Z,42.805,6.029,13.2999,4.60034,2470.04,2022-5-14T10:29:19Z
2022-05-14T08:30:42Z,42.805,6.029,13.3002,4.60035,2470.017,2022-5-14T10:32:22Z
2022-05-14T08:33:45Z,42.805,6.029,13.3003,4.60036,2470.017,2022-5-14T10:35:26Z
2022-05-14T08:36:48Z,42.805,6.029,13.3000,4.60034,2470.053,2022-5-14T10:38:29Z
2022-05-14T08:39:51Z,42.805,6.029,13.3002,4.60034,2469.993,2022-5-14T10:41:32Z
2022-05-14T08:42:54Z,42.805,6.029,13.3000,4.60034,2470.017,2022-5-14T10:44:35Z
2022-05-14T08:45:57Z,42.805,6.029,13.3002,4.60033,2470.04,2022-5-14T10:47:38Z
2022-05-14T08:49:00Z,42.805,6.029,13.2999,4.60034,2470.03,2022-5-14T10:50:41Z
2022-05-14T08:52:04Z,42.805,6.029,13.3004,4.60036,2470.017,2022-5-14T10:53:44Z
2022-05-14T08:55:07Z,42.805,6.029,13.3003,4.60033,2469.993,2022-5-14T10:56:47Z
2022-05-14T08:58:10Z,42.805,6.029,13.2998,4.60034,2470.017,2022-5-14T10:59:51Z
2022-05-14T09:01:13Z,42.805,6.029,13.3003,4.60034,2470.007,2022-5-14T11:02:54Z
2022-05-14T09:04:16Z,42.805,6.029,13.3001,4.60035,2470.017,2022-5-14T11:05:57Z
2022-05-14T09:07:19Z,42.805,6.029,13.2999,4.60034,2470.017,2022-5-14T11:09:00Z
2022-05-14T09:10:22Z,42.805,6.029,13.2999,4.60035,2469.993,2022-5-14T11:12:03Z
2022-05-14T09:13:25Z,42.805,6.029,13.3000,4.60034,2470.003,2022-5-14T11:15:06Z
2022-05-14T09:16:28Z,42.805,6.029,13.2998,4.60035,2469.993,2022-5-14T11:18:09Z
2022-05-14T09:19:32Z,42.805,6.029,13.3000,4.60035,2470.017,2022-5-14T11:21:12Z
2022-05-14T09:22:35Z,42.805,6.029,13.3001,4.60034,2469.993,2022-5-14T11:24:16Z
2022-05-14T09:25:38Z,42.805,6.029,13.3001,4.60035,2469.993,2022-5-14T11:27:19Z
2022-05-14T09:28:41Z,42.805,6.029,13.2994,4.60036,2469.993,2022-5-14T11:30:22Z
2022-05-14T09:31:44Z,42.805,6.029,13.3002,4.60034,2469.993,2022-5-14T11:33:25Z
2022-05-14T09:34:47Z,42.805,6.029,13.3001,4.60034,2470.007,2022-5-14T11:36:28Z
2022-05-14T09:37:50Z,42.805,6.029,13.3003,4.60034,2469.97,2022-5-14T11:39:31Z
2022-05-14T09:40:53Z,42.805,6.029,13.3001,4.60036,2469.947,2022-5-14T11:42:34Z
2022-05-14T09:43:57Z,42.805,6.029,13.2997,4.60036,2469.984,2022-5-14T11:45:37Z
2022-05-14T09:47:00Z,42.805,6.029,13.2997,4.60034,2469.993,2022-5-14T11:48:41Z
2022-05-14T09:50:03Z,42.805,6.029,13.3000,4.60035,2469.97,2022-5-14T11:51:44Z
2022-05-14T09:53:06Z,42.805,6.029,13.2998,4.60036,2469.993,2022-5-14T11:54:47Z
2022-05-14T09:56:09Z,42.805,6.029,13.3000,4.60035,2469.984,2022-5-14T11:57:50Z
2022-05-14T09:59:12Z,42.805,6.029,13.3008,4.60035,2469.97,2022-5-14T12:00:53Z
2022-05-14T10:02:15Z,42.805,6.029,13.3004,4.60036,2469.947,2022-5-14T12:03:56Z
2022-05-14T10:05:19Z,42.805,6.029,13.3002,4.60035,2469.984,2022-5-14T12:06:59Z
2022-05-14T10:08:22Z,42.805,6.029,13.3000,4.60035,2469.97,2022-5-14T12:10:02Z
2022-05-14T10:11:25Z,42.805,6.029,13.3000,4.60036,2469.947,2022-5-14T12:13:06Z
2022-05-14T10:14:28Z,42.805,6.029,13.3000,4.60035,2469.993,2022-5-14T12:16:09Z
2022-05-14T10:17:31Z,42.805,6.029,13.3000,4.60036,2469.97,2022-5-14T12:19:12Z
2022-05-14T10:20:34Z,42.805,6.029,13.2998,4.60036,2469.97,2022-5-14T12:22:15Z
2022-05-14T10:23:37Z,42.805,6.029,13.3002,4.60034,2469.97,2022-5-14T12:25:18Z
2022-05-14T10:26:40Z,42.805,6.029,13.3004,4.60036,2469.97,2022-5-14T12:28:21Z
2022-05-14T10:29:43Z,42.805,6.029,13.3000,4.60036,2469.984,2022-5-14T12:31:24Z
2022-05-14T10:32:47Z,42.805,6.029,13.3003,4.60036,2469.97,2022-5-14T12:34:27Z
2022-05-14T10:35:50Z,42.805,6.029,13.3000,4.60035,2470.017,2022-5-14T12:37:31Z
2022-05-14T10:38:53Z,42.805,6.029,13.3004,4.60035,2469.923,2022-5-14T12:40:34Z
2022-05-14T10:41:56Z,42.805,6.029,13.3004,4.60036,2469.97,2022-5-14T12:43:37Z
2022-05-14T10:44:59Z,42.805,6.029,13.3000,4.60036,2469.97,2022-5-14T12:46:40Z
2022-05-14T10:48:02Z,42.805,6.029,13.3000,4.60036,2469.97,2022-5-14T12:49:43Z
2022-05-14T10:51:05Z,42.805,6.029,13.3003,4.60036,2469.97,2022-5-14T12:52:46Z
2022-05-14T10:54:09Z,42.805,6.029,13.3001,4.60036,2469.947,2022-5-14T12:55:49Z
2022-05-14T10:57:12Z,42.805,6.029,13.3000,4.60035,2469.947,2022-5-14T12:58:52Z
2022-05-14T11:00:15Z,42.805,6.029,13.3003,4.60036,2469.96,2022-5-14T13:01:56Z
2022-05-14T11:03:18Z,42.805,6.029,13.3002,4.60034,2469.947,2022-5-14T13:04:59Z
2022-05-14T11:06:21Z,42.805,6.029,13.2998,4.60035,2469.947,2022-5-14T13:08:02Z
2022-05-14T11:09:24Z,42.805,6.029,13.3002,4.60036,2469.947,2022-5-14T13:11:05Z
2022-05-14T11:12:27Z,42.805,6.029,13.3004,4.60037,2469.923,2022-5-14T13:14:08Z
2022-05-14T11:15:30Z,42.805,6.029,13.3002,4.60036,2469.923,2022-5-14T13:17:11Z
2022-05-14T11:18:33Z,42.805,6.029,13.3004,4.60036,2469.937,2022-5-14T13:20:14Z
2022-05-14T11:21:37Z,42.805,6.029,13.3001,4.60036,2469.937,2022-5-14T13:23:17Z
2022-05-14T11:24:40Z,42.805,6.029,13.3002,4.60036,2469.97,2022-5-14T13:26:21Z
2022-05-14T11:27:43Z,42.805,6.029,13.3003,4.60036,2469.97,2022-5-14T13:29:24Z
2022-05-14T11:30:46Z,42.805,6.029,13.3004,4.60037,2469.923,2022-5-14T13:32:27Z
2022-05-14T11:33:49Z,42.805,6.029,13.3006,4.60036,2469.923,2022-5-14T13:35:30Z
2022-05-14T11:36:52Z,42.805,6.029,13.3000,4.60036,2469.923,2022-5-14T13:38:33Z
2022-05-14T11:39:55Z,42.805,6.029,13.3004,4.60037,2469.96,2022-5-14T13:41:36Z
2022-05-14T11:42:59Z,42.805,6.029,13.3004,4.60036,2469.9,2022-5-14T13:44:39Z
2022-05-14T11:46:02Z,42.805,6.029,13.3001,4.60036,2469.923,2022-5-14T13:47:42Z
2022-05-14T11:49:05Z,42.805,6.029,13.3003,4.60036,2469.947,2022-5-14T13:50:46Z
2022-05-14T11:52:08Z,42.805,6.029,13.3001,4.60036,2469.96,2022-5-14T13:53:49Z
2022-05-14T11:55:11Z,42.805,6.029,13.3003,4.60037,2469.923,2022-5-14T13:56:52Z
2022-05-14T11:58:14Z,42.805,6.029,13.3002,4.60036,2469.947,2022-5-14T13:59:55Z
2022-05-14T12:01:17Z,42.805,6.029,13.3001,4.60037,2469.923,2022-5-14T14:02:58Z
2022-05-14T12:04:20Z,42.805,6.029,13.3002,4.60036,2469.937,2022-5-14T14:06:01Z
2022-05-14T12:07:23Z,42.805,6.029,13.3006,4.60036,2469.923,2022-5-14T14:09:04Z
2022-05-14T12:10:27Z,42.805,6.029,13.3004,4.60036,2469.96,2022-5-14T14:12:07Z
2022-05-14T12:13:30Z,42.805,6.029,13.3001,4.60036,2469.947,2022-5-14T14:15:11Z
2022-05-14T12:16:33Z,42.805,6.029,13.3000,4.60036,2469.923,2022-5-14T14:18:14Z
2022-05-14T12:19:36Z,42.805,6.029,13.3006,4.60036,2469.937,2022-5-14T14:21:17Z
2022-05-14T12:22:39Z,42.805,6.029,13.3005,4.60035,2469.937,2022-5-14T14:24:20Z
2022-05-14T12:25:42Z,42.805,6.029,13.3004,4.60038,2469.923,2022-5-14T14:27:23Z
2022-05-14T12:28:45Z,42.805,6.029,13.3002,4.60037,2469.947,2022-5-14T14:30:26Z
2022-05-14T12:31:49Z,42.805,6.029,13.3004,4.60037,2469.96,2022-5-14T14:33:29Z
2022-05-14T12:34:52Z,42.805,6.029,13.3004,4.60036,2469.923,2022-5-14T14:36:32Z
2022-05-14T12:37:55Z,42.805,6.029,13.3001,4.60036,2469.96,2022-5-14T14:39:36Z
2022-05-14T12:40:58Z,42.805,6.029,13.3003,4.60036,2469.923,2022-5-14T14:42:39Z
2022-05-14T12:44:01Z,42.805,6.029,13.3004,4.60039,2469.947,2022-5-14T14:45:42Z
2022-05-14T12:47:04Z,42.805,6.029,13.3004,4.60036,2469.937,2022-5-14T14:48:45Z
2022-05-14T12:50:07Z,42.805,6.029,13.3004,4.60037,2469.923,2022-5-14T14:51:48Z
2022-05-14T12:53:10Z,42.805,6.029,13.3003,4.60037,2469.96,2022-5-14T14:54:51Z
2022-05-14T12:56:14Z,42.805,6.029,13.3002,4.60036,2469.947,2022-5-14T14:57:54Z
2022-05-14T12:59:17Z,42.805,6.029,13.3003,4.60037,2469.923,2022-5-14T15:00:57Z
2022-05-14T13:02:20Z,42.805,6.029,13.3000,4.60037,2469.97,2022-5-14T15:04:01Z
2022-05-14T13:05:23Z,42.805,6.029,13.3004,4.60037,2469.947,2022-5-14T15:07:04Z
2022-05-14T13:08:26Z,42.805,6.029,13.3004,4.60037,2469.947,2022-5-14T15:10:07Z
2022-05-14T13:11:30Z,42.805,6.029,13.3006,4.60038,2469.937,2022-5-14T15:13:11Z
2022-05-14T13:14:33Z,42.805,6.029,13.3005,4.60038,2469.96,2022-5-14T15:16:14Z
2022-05-14T13:17:36Z,42.805,6.029,13.3003,4.60038,2469.923,2022-5-14T15:19:17Z
2022-05-14T13:20:39Z,42.805,6.029,13.3003,4.60036,2469.947,2022-5-14T15:22:20Z
2022-05-14T13:23:42Z,42.805,6.029,13.3004,4.60038,2469.923,2022-5-14T15:25:23Z
2022-05-14T13:26:45Z,42.805,6.029,13.3001,4.60038,2469.984,2022-5-14T15:28:26Z
2022-05-14T13:29:49Z,42.805,6.029,13.3009,4.60037,2469.947,2022-5-14T15:31:29Z
2022-05-14T13:32:52Z,42.805,6.029,13.3004,4.60037,2469.97,2022-5-14T15:34:33Z
2022-05-14T13:35:55Z,42.805,6.029,13.3001,4.60036,2469.984,2022-5-14T15:37:36Z
2022-05-14T13:38:58Z,42.805,6.029,13.3001,4.60037,2469.96,2022-5-14T15:40:39Z
2022-05-14T13:42:01Z,42.805,6.029,13.3002,4.60036,2469.984,2022-5-14T15:43:42Z
2022-05-14T13:45:04Z,42.805,6.029,13.3005,4.60037,2469.933,2022-5-14T15:46:45Z
2022-05-14T13:48:07Z,42.805,6.029,13.3006,4.60038,2469.993,2022-5-14T15:49:48Z
2022-05-14T13:51:10Z,42.805,6.029,13.3008,4.60037,2470.007,2022-5-14T15:52:51Z
2022-05-14T13:54:14Z,42.805,6.029,13.3004,4.60039,2470.017,2022-5-14T15:55:54Z
2022-05-14T13:57:17Z,42.805,6.029,13.3004,4.60038,2469.97,2022-5-14T15:58:58Z
2022-05-14T14:00:20Z,42.805,6.029,13.3002,4.60037,2469.97,2022-5-14T16:02:01Z
2022-05-14T14:03:23Z,42.805,6.029,13.3002,4.60037,2470.007,2022-5-14T16:05:04Z
2022-05-14T14:06:26Z,42.805,6.029,13.3002,4.60038,2469.984,2022-5-14T16:08:07Z
2022-05-14T14:09:29Z,42.805,6.029,13.3004,4.60038,2470.03,2022-5-14T16:11:10Z
2022-05-14T14:12:32Z,42.805,6.029,13.3006,4.60037,2470.04,2022-5-14T16:14:13Z
2022-05-14T14:15:35Z,42.805,6.029,13.3000,4.60038,2470.007,2022-5-14T16:17:16Z
2022-05-14T14:18:39Z,42.805,6.029,13.3005,4.60037,2470.017,2022-5-14T16:20:19Z
2022-05-14T14:21:42Z,42.805,6.029,13.3002,4.60038,2470.007,2022-5-14T16:23:23Z
2022-05-14T14:24:45Z,42.805,6.029,13.3007,4.60037,2470.017,2022-5-14T16:26:26Z
2022-05-14T14:27:48Z,42.805,6.029,13.3001,4.60037,2470.017,2022-5-14T16:29:29Z
2022-05-14T14:30:51Z,42.805,6.029,13.3006,4.60038,2470.03,2022-5-14T16:32:32Z
2022-05-14T14:33:54Z,42.805,6.029,13.3005,4.60038,2470.04,2022-5-14T16:35:35Z
2022-05-14T14:36:57Z,42.805,6.029,13.3003,4.60038,2469.993,2022-5-14T16:38:38Z
2022-05-14T14:40:00Z,42.805,6.029,13.3003,4.60038,2470.04,2022-5-14T16:41:41Z
2022-05-14T14:43:04Z,42.805,6.029,13.3005,4.60038,2470.03,2022-5-14T16:44:44Z
2022-05-14T14:46:07Z,42.805,6.029,13.3001,4.60038,2470.04,2022-5-14T16:47:48Z
2022-05-14T14:49:10Z,42.805,6.029,13.3003,4.60039,2470.053,2022-5-14T16:50:51Z
2022-05-14T14:52:13Z,42.805,6.029,13.3004,4.60037,2470.04,2022-5-14T16:53:54Z
2022-05-14T14:55:16Z,42.805,6.029,13.3005,4.60038,2470.077,2022-5-14T16:56:57Z
2022-05-14T14:58:19Z,42.805,6.029,13.3006,4.60039,2470.04,2022-5-14T17:00:00Z
2022-05-14T15:01:22Z,42.805,6.029,13.3002,4.60039,2470.04,2022-5-14T17:03:03Z
2022-05-14T15:04:25Z,42.805,6.029,13.3007,4.60038,2470.04,2022-5-14T17:06:06Z
2022-05-14T15:07:29Z,42.805,6.029,13.3004,4.60039,2470.04,2022-5-14T17:09:09Z
2022-05-14T15:10:32Z,42.805,6.029,13.3004,4.60038,2470.063,2022-5-14T17:12:13Z
2022-05-14T15:13:35Z,42.805,6.029,13.3004,4.60039,2470.063,2022-5-14T17:15:16Z